LiveATC.Net - Listen to live air traffic control over the Internet!


ICAO: SBTE  IATA: THE   Airport: Teresina-Senador Petronio Portella Airport
City: Teresina
Country: Brazil   Continent: South America
SBTE METAR Weather: SBTE 222300Z 35005KT CAVOK 26/24 Q1011
SBTE Flight Activity (FlightAware)

SBTE Twr/App
Feed Status: DOWN
Last heard on: 2019-05-22 22:05:02 (0 days 1 hours 46 minutes ago)
SBTE Twr/App Audio Archives
FacilityFrequency
Teresina Approach119.600
Teresina Tower118.800
Sponsored by:

Pistadoiszero


NOTICE

Unauthorized use prohibited. See LiveATC.net Terms of Service


Find LiveATC Audio Streams


Airport/ARTCC Code

Frequency Search
(e.g., 124.400, 128.75)
Site-wide search
 


Browse LiveATC Feeds
Top 50 LiveATC Feeds
LiveATC Feed Map
Bad Weather Areas

LiveATC FAQ
Offer LiveATC feed
Contact LiveATC.net
Press Inquiries

LiveATC on iPhone
LiveATC on Android

Windows Phone
Windows 8/10

LiveATC Mobile
(Mobile browser)

ATC Audio Archives
Interesting Recordings

LiveATC Forums


Home Page
About LiveATC.net
Make a Donation
Terms of Use
Privacy Policy

Canadian Air Freqs

AIRMETs/SIGMETs

FAA Airport Status
Nat'l Airspace Status
Arrival Demand Charts


Server Software By:
Icecast.org
Liquidsoap